Location: Le Petit-Vavre
(46.5081°N, 1.5239°E)
Time: 19:03:01
(UTC+00:00)

Cosmos 2333 Rocket - Visible Passes

Search period start: 12 June 2021 00:00
Search period end: 22 June 2021 00:00
Orbit: 839 x 863 km, 70.8° (Epoch: 12 June)

Date Brightness Start Highest point End Pass type
(mag) Time Alt. Az. Time Alt. Az. Time Alt. Az.
12 Jun 4.6 01:40:47 10° WNW 01:43:38 14° NW 01:46:29 10° N visible
12 Jun 3.4 22:00:00 22° SE 22:01:51 26° ESE 22:06:28 10° NE visible
12 Jun 2.8 23:41:58 21° SW 23:45:45 56° WNW 23:51:24 10° NNE visible
13 Jun 4.7 01:28:31 10° WNW 01:31:22 14° NW 01:34:12 10° N visible
13 Jun 3.3 21:47:24 20° SE 21:49:35 26° ESE 21:54:13 10° NE visible
13 Jun 2.8 23:29:22 19° SW 23:33:29 56° WNW 23:39:08 10° NNE visible
14 Jun 4.7 01:16:16 10° WNW 01:19:06 14° NW 01:21:56 10° N visible
14 Jun 3.3 21:34:44 19° SE 21:37:18 26° ESE 21:41:56 10° NE visible
14 Jun 2.8 23:16:40 16° SW 23:21:12 56° WNW 23:26:52 10° NNE visible
15 Jun 4.7 01:04:00 10° WNW 01:06:50 14° NW 01:09:39 10° N visible
15 Jun 3.3 21:21:56 16° SE 21:25:02 26° ESE 21:29:41 10° NE visible
15 Jun 2.8 23:03:52 13° SW 23:08:57 56° WNW 23:14:36 10° NNE visible
16 Jun 4.8 00:51:44 10° WNW 00:54:34 14° NW 00:57:24 10° N visible
16 Jun 3.3 21:09:00 14° SSE 21:12:46 26° ESE 21:17:25 10° NE visible
16 Jun 2.8 22:51:02 10° SW 22:56:41 56° WNW 23:02:20 10° NNE visible
17 Jun 4.8 00:39:28 10° WNW 00:42:18 14° NW 00:45:08 10° N visible
17 Jun 3.3 20:55:53 10° SSE 21:00:30 26° ESE 21:05:08 10° NE visible
17 Jun 2.9 22:38:47 10° SW 22:44:25 56° WNW 22:50:04 10° NNE visible
18 Jun 4.8 00:27:13 10° WNW 00:30:03 14° NW 00:32:52 10° N visible
18 Jun 3.3 20:43:37 10° SSE 20:48:15 26° ESE 20:52:53 10° NE visible
18 Jun 2.9 22:26:31 10° SW 22:32:09 56° WNW 22:37:48 10° NNE visible
19 Jun 4.9 00:14:57 10° WNW 00:17:46 14° NW 00:20:36 10° N visible
19 Jun 3.3 20:31:22 10° SSE 20:35:59 26° ESE 20:40:36 10° NE visible
19 Jun 2.9 22:14:15 10° SW 22:19:53 56° WNW 22:25:32 10° NNE visible
20 Jun 4.9 00:02:41 10° WNW 00:05:30 14° NW 00:08:19 10° N visible
20 Jun 3.3 20:19:06 10° SSE 20:23:43 26° ESE 20:28:21 10° NE visible
20 Jun 2.9 22:01:59 10° SW 22:07:37 56° WNW 22:13:16 10° NNE visible
20 Jun 5.0 23:50:25 10° WNW 23:53:14 14° NW 23:56:04 10° N visible
21 Jun 2.9 21:49:43 10° SW 21:55:22 56° WNW 22:01:00 10° NNE visible
21 Jun 5.0 23:38:10 10° WNW 23:40:59 14° NW 23:43:47 10° N visible
